Regional Weather Roundup
Issued by NWS

Home | Current Version | Previous Version | Graphics & Text | Print | Product List | Glossary On
Versions: 1 2 3 4 5 6 7 8 9 10 11 12 13 14 15 16 17 18 19 20 21 22 23 24 25 26 27 28 29 30 31 32 33 34 35 36 37 38 39 40 41 42 43 44 45 46 47 48 49 50
000
ASUS43 KDTX 260001
RWRMI
MICHIGAN HOURLY REGIONAL WEATHER ROUNDUP
NATIONAL WEATHER SERVICE DETROIT/PONTIAC MI
800 PM EDT MON JUL 25 2016

NOTE: "FAIR" INDICATES FEW OR NO CLOUDS BELOW 12,000 FEET WITH NO
SIGNIFICANT WEATHER AND/OR OBSTRUCTION TO VISIBILITY.

MIZ047>049-052>055-059>063-066>070-074>076-081>083-260100-
SOUTHEAST LOWER MICHIGAN

CITY           SKY/WX    TMP DP  RH WIND       PRES   REMARKS
ADRIAN         CLEAR     84  66  54 NW7       29.95R
6HR MIN TEMP:  84; 6HR MAX TEMP:  88;

ALMA           SUNNY     82  59  45 NW8G21    29.96R
ANN ARBOR      CLEAR     84  63  49 W9        29.94R
BAD AXE        CLEAR     83  55  39 NW7       29.91R
CARO           PTCLDY    83  60  46 W9        29.92R
DETROIT CITY   PTCLDY    87  62  43 NW8       29.91R
6HR MIN TEMP:  87; 6HR MAX TEMP:  91;

DETROIT        PTCLDY    87  62  43 W10       29.93R
6HR MIN TEMP:  86; 6HR MAX TEMP:  93;

FLINT          CLEAR     87  59  38 W12       29.93R
6HR MIN TEMP:  87; 6HR MAX TEMP:  92;

GROSSE ILE     CLEAR     86  63  45 NW10      29.91R
6HR MIN TEMP:  86; 6HR MAX TEMP:  91;

HILLSDALE      SUNNY     80  65  60 NW7       29.98R
HOWELL         CLEAR     82  60  45 NW6       29.95R
6HR MIN TEMP:  82; 6HR MAX TEMP:  88;


CITY           SKY/WX    TMP DP  RH WIND       PRES   REMARKS
JACKSON        MOSUNNY   81  64  56 W7        29.96R
6HR MIN TEMP:  81; 6HR MAX TEMP:  86;

LAMBERTVILLE   CLEAR     85  68  56 W5        29.94S
6HR MIN TEMP:  85; 6HR MAX TEMP:  89;

LANSING        SUNNY     82  59  45 NW8       29.96R
6HR MIN TEMP:  80; 6HR MAX TEMP:  87;

LAPEER         FAIR      83  59  44 NW6       29.93R
6HR MIN TEMP:  83; 6HR MAX TEMP:  89;

MASON          SUNNY     83  62  48 W10G18    29.96R
MONROE         CLEAR     83  67  59 NW6       29.92R
6HR MIN TEMP:  83; 6HR MAX TEMP:  89;

PONTIAC        PTCLDY    84  63  49 NW12      29.93R
6HR MIN TEMP:  84; 6HR MAX TEMP:  88;

PORT HURON     CLEAR     81  63  54 W5        29.91R
TRI CITIES     SUNNY     83  60  45 W10       29.93R
6HR MIN TEMP:  83; 6HR MAX TEMP:  87;

MIDLAND        NOT AVBL
TROY           CLEAR     87  58  37 NW10G18   29.94R
SAGINAW HB     SUNNY     82  57  42 W14       29.93R
$$
MIZ043>046-050>051-056>058-064>065-071>073-077>080-260100-
SOUTHWEST LOWER MICHIGAN

CITY           SKY/WX    TMP DP  RH WIND       PRES   REMARKS
BATTLE CREEK   SUNNY     78  63  59 W12       29.99R
6HR MIN TEMP:  78; 6HR MAX TEMP:  84;

BENTON HARBOR  MOSUNNY   79  62  56 CALM      29.99S
6HR MIN TEMP:  78; 6HR MAX TEMP:  80;

BIG RAPIDS     MOSUNNY   78  60  54 NW3       29.98R
6HR MIN TEMP:  78; 6HR MAX TEMP:  83;

COLDWATER      SUNNY     80  63  56 W8        29.98S
6HR MIN TEMP:  80; 6HR MAX TEMP:  86;

FREMONT        FAIR      79  62  54 NW8       29.98R
HOLLAND        SUNNY     77  63  61 W8        30.00R
6HR MIN TEMP:  77; 6HR MAX TEMP:  82;

GRAND RAPIDS   MOSUNNY   81  60  48 W12       29.98R
6HR MIN TEMP:  81; 6HR MAX TEMP:  87;

IONIA          FAIR      81  54  39 NW9       29.96R
6HR MIN TEMP:  81; 6HR MAX TEMP:  87;

KALAMAZOO      SUNNY     79  61  53 NW10      29.99R
6HR MIN TEMP:  79; 6HR MAX TEMP:  86;

LUDINGTON      SUNNY     76  66  71 W6        29.97R
6HR MIN TEMP:  76; 6HR MAX TEMP:  80;

MARSHALL       SUNNY     81  64  55 W8        29.97S
6HR MIN TEMP:  81; 6HR MAX TEMP:  88;

MOUNT PLEASANT SUNNY     82  59  45 W10       29.95R
6HR MIN TEMP:  82; 6HR MAX TEMP:  87;

MUSKEGON       MOSUNNY   78  64  61 W5        29.99R
6HR MIN TEMP:  77; 6HR MAX TEMP:  85;

SOUTH HAVEN    SUNNY     77  64  65 CALM      29.99S
$$
MIZ016>042-260100-
NORTHERN LOWER MICHIGAN

CITY           SKY/WX    TMP DP  RH WIND       PRES   REMARKS
ALPENA         SUNNY     77  56  48 NW12G20   29.92R
6HR MIN TEMP:  77; 6HR MAX TEMP:  87;

BEAVER ISLAND  SUNNY     74  59  60 N3        29.95S
6HR MIN TEMP:  74; 6HR MAX TEMP:  79;

BELLAIRE       SUNNY     76  59  53 NW6       29.96R
6HR MIN TEMP:  76; 6HR MAX TEMP:  80;

CADILLAC       SUNNY     77  58  51 NW9       29.98S
CHARLEVOIX     SUNNY     74  61  64 NW5       29.99R
6HR MIN TEMP:  74; 6HR MAX TEMP:  80;

FRANKFORT      SUNNY     76  64  66 W3        29.96S
GAYLORD        SUNNY     75  58  55 W8        29.98R
6HR MIN TEMP:  75; 6HR MAX TEMP:  80;

GRAYLING       MOSUNNY   77  60  54 NW12      29.98R
HARBOR SPRINGS SUNNY     74  57  56 W8        29.96R
HOUGHTON LAKE  SUNNY     78  57  48 NW9       29.98R
6HR MIN TEMP:  78; 6HR MAX TEMP:  84;

MANISTEE       SUNNY     78  63  59 W5        29.96S
OSCODA         SUNNY     80  57  44 NW15G22   29.90R
6HR MIN TEMP:  80; 6HR MAX TEMP:  90;

ROGERS CITY    SUNNY     72  58  62 NW10G21   29.93S
TRAVERSE CITY  MOSUNNY   81  58  45 N7        29.94R
6HR MIN TEMP:  81; 6HR MAX TEMP:  85;

$$
MIZ007>008-015-260100-
EASTERN UPPER MICHIGAN

CITY           SKY/WX    TMP DP  RH WIND       PRES   REMARKS
KINROSS        SUNNY     72  58  61 NW15G22   29.93R
6HR MIN TEMP:  70; 6HR MAX TEMP:  74;

MACKINAC ISLAN SUNNY     71  57  60 NW7       29.93S
6HR MIN TEMP:  71; 6HR MAX TEMP:  76;

NEWBERRY       SUNNY     73  57  56 NW8G16    29.94S
S. S. MARIE    SUNNY     72  58  61 NW9G20    29.91S
6HR MIN TEMP:  69; 6HR MAX TEMP:  72;

MUNISING         N/A     74  61  63 N10       29.94R
6HR MIN TEMP:  71; 6HR MAX TEMP:  75;

$$
MIZ004>006-011>014-085-260100-
CENTRAL UPPER MICHIGAN

CITY           SKY/WX    TMP DP  RH WIND       PRES   REMARKS
MANISTIQUE     SUNNY     75  58  54 N5        29.94S
6HR MIN TEMP:  75; 6HR MAX TEMP:  81;

ESCANABA       MOSUNNY   82  55  39 NW6       29.93R
6HR MIN TEMP:  81; 6HR MAX TEMP:  84;

MENOMINEE      SUNNY    N/A N/A N/A N6        29.95S
SAWYER-GWINN   MOSUNNY   79  55  44 NW8       29.97R
$$
MIZ001>003-009>011-084-260100-
WESTERN UPPER MICHIGAN

CITY           SKY/WX    TMP DP  RH WIND       PRES   REMARKS
IRON MOUNTAIN  SUNNY     80  53  39 NW9       29.97R
6HR MIN TEMP:  80; 6HR MAX TEMP:  83; 6HR PCP: TRACE;

HOUGHTON       SUNNY     76  58  53 W14       29.94F
6HR MIN TEMP:  74; 6HR MAX TEMP:  78;

COPPER HARBOR    N/A     77  58  51 NW9G20    29.90F
6HR MIN TEMP:  73; 6HR MAX TEMP:  79;

IRONWOOD       SUNNY     77  61  57 W7        29.97S
6HR MIN TEMP:  75; 6HR MAX TEMP:  79;

$$

ABBREVIATIONS USED IN REMARKS
   TC - TEMPERATURE IN CELSIUS
  WCI - WIND CHILL INDEX
   HX - HEAT INDEX
  VSB - VISIBILITY




USA.gov is the U.S. government's official web portal to all federal, state and local government web resources and services.